Terminal Aerodrome Forecast
Issued by NWS

Home | Current Version | Previous Version | Text Only | Print | Product List | Glossary On
Versions: 1 2 3 4 5 6 7 8 9 10 11 12 13 14
000
FTUS44 KLIX 301722
TAFMCB
TAF
KMCB 301722Z 3018/3118 22004KT P6SM VCTS SCT035CB
     FM310100 00000KT P6SM BKN200
     FM310900 00000KT 3SM BR BKN200
     FM311400 00000KT P6SM SCT025=

USA.gov is the U.S. government's official web portal to all federal, state and local government web resources and services.